Location: Unspecified
(0.0000°N, 0.0000°E)
Time: 20:07:11
(UTC+00:00)

STARLINK-4314 - Pass Details

Date: 31 October 2025
Orbit: 548 x 551 km, 97.6° (Epoch: 29 March)

Event Time Altitude Azimuth Distance (km) Brightness Sun altitude
Rises 17:53:36 0° 357° (N) 2,703 7.0 -2.4°
Reaches altitude 10° 17:55:49 10° 348° (NNW) 1,813 6.3 -3.0°
Maximum altitude 17:59:26 36° 281° (WNW) 882 5.4 -3.8°
Drops below altitude 10° 18:03:03 10° 214° (SW) 1,820 7.1 -4.7°
Sets 18:05:18 0° 205° (SSW) 2,715 7.8 -5.3°
